| Back to River Map | <<< Previous Forecast Point | | | Next Forecast Point >>> | Printer Version | Graph Version |  |
|
SALSIPUEDES CREEK - LOMPOC (SLUC1)
| Latitude: 34.59º N | Longitude: 120.41º W | Elevation: 220 Feet | | Forecast Type: Unofficial Location |
| Location: Santa Barbara County in California | Bulletin Group: Southern California | River Group: Southern California |
| Issuance Time: | May 07 2026 at 7:38 AM PDT | Next Issuance: | May 08 2026 at 9:00 AM PDT
| |
| Action/Monitor: N/A | Minor Flood: N/A | Moderate Flood: N/A | Major Flood: N/A |
# Tabular Observed and Forecast Hydrograph Information
#
# Location: Salsipuedes Creek - Lompoc (SLUC1)
#
# File Generation Time: 05/07/2026 at 07:39 AM PDT
# Data Interval: 1 Hour
#
# Most Recent Date & Time of Maximum Observed: 05/03/2026 at 02:00 PM PDT
# Maximum Observed Stage: 2.04 Feet
# Maximum Observed Flow: 6 cfs
#
# Earliest Date & Time of Maximum Forecast: 05/07/2026 at 08:00 AM PDT
# Maximum Forecast Stage: 2.00 Feet
# Maximum Forecast Flow: 5 cfs
#
# OBSERVED
#
# Date & Time (Local) Stage (Feet) Flow (cfs) Trend Observed Status
# ---------------------------------------------------------------------------------
05/02/2026 07 AM PDT 2.03 5 Not Applicable
05/02/2026 08 AM PDT 2.03 5 0 Not Applicable
05/02/2026 09 AM PDT 2.03 5 0 Not Applicable
05/02/2026 10 AM PDT 2.02 5 - Not Applicable
05/02/2026 11 AM PDT 2.03 5 + Not Applicable
05/02/2026 12 PM PDT 2.03 5 0 Not Applicable
05/02/2026 01 PM PDT 2.03 5 0 Not Applicable
05/02/2026 02 PM PDT 2.03 5 0 Not Applicable
05/02/2026 03 PM PDT 2.03 5 0 Not Applicable
05/02/2026 04 PM PDT 2.03 5 0 Not Applicable
05/02/2026 05 PM PDT 1.99 5 - Not Applicable
05/02/2026 06 PM PDT 2.00 5 + Not Applicable
05/02/2026 07 PM PDT 2.02 5 + Not Applicable
05/02/2026 08 PM PDT 2.03 5 + Not Applicable
05/02/2026 09 PM PDT 2.03 5 0 Not Applicable
05/02/2026 10 PM PDT 2.03 5 0 Not Applicable
05/02/2026 11 PM PDT 2.04 6 + Not Applicable
05/03/2026 12 AM PDT 2.04 6 0 Not Applicable
05/03/2026 01 AM PDT 2.04 6 0 Not Applicable
05/03/2026 02 AM PDT 2.04 6 0 Not Applicable
05/03/2026 03 AM PDT 2.04 6 0 Not Applicable
05/03/2026 04 AM PDT 2.04 6 0 Not Applicable
05/03/2026 05 AM PDT 2.04 6 0 Not Applicable
05/03/2026 06 AM PDT 2.04 6 0 Not Applicable
05/03/2026 07 AM PDT 2.04 6 0 Not Applicable
05/03/2026 08 AM PDT 2.04 6 0 Not Applicable
05/03/2026 09 AM PDT 2.04 6 0 Not Applicable
05/03/2026 10 AM PDT 2.04 6 0 Not Applicable
05/03/2026 11 AM PDT 2.04 6 0 Not Applicable
05/03/2026 12 PM PDT 2.04 6 0 Not Applicable
05/03/2026 01 PM PDT 2.04 6 0 Not Applicable
05/03/2026 02 PM PDT 2.04 6 0 Not Applicable
05/03/2026 03 PM PDT 1.99 5 - Not Applicable
05/03/2026 04 PM PDT 2.03 5 + Not Applicable
05/03/2026 05 PM PDT 1.98 5 - Not Applicable
05/03/2026 06 PM PDT 1.98 5 0 Not Applicable
05/03/2026 07 PM PDT 1.99 5 + Not Applicable
05/03/2026 08 PM PDT 2.02 5 + Not Applicable
05/03/2026 09 PM PDT 2.02 5 0 Not Applicable
05/03/2026 10 PM PDT 2.02 5 0 Not Applicable
05/03/2026 11 PM PDT 2.02 5 0 Not Applicable
05/04/2026 12 AM PDT 2.02 5 0 Not Applicable
05/04/2026 01 AM PDT 2.02 5 0 Not Applicable
05/04/2026 02 AM PDT 2.02 5 0 Not Applicable
05/04/2026 03 AM PDT 2.02 5 0 Not Applicable
05/04/2026 04 AM PDT 2.02 5 0 Not Applicable
05/04/2026 05 AM PDT 2.02 5 0 Not Applicable
05/04/2026 06 AM PDT 2.03 5 + Not Applicable
05/04/2026 07 AM PDT 2.03 5 0 Not Applicable
05/04/2026 08 AM PDT 2.03 5 0 Not Applicable
05/04/2026 09 AM PDT 2.02 5 - Not Applicable
05/04/2026 10 AM PDT 2.03 5 + Not Applicable
05/04/2026 11 AM PDT 2.03 5 0 Not Applicable
05/04/2026 12 PM PDT 2.02 5 - Not Applicable
05/04/2026 01 PM PDT 2.01 5 - Not Applicable
05/04/2026 02 PM PDT 2.02 5 + Not Applicable
05/04/2026 03 PM PDT 2.02 5 0 Not Applicable
05/04/2026 04 PM PDT 2.01 5 - Not Applicable
05/04/2026 05 PM PDT 1.97 4 - Not Applicable
05/04/2026 06 PM PDT 2.01 5 + Not Applicable
05/04/2026 07 PM PDT 2.01 5 0 Not Applicable
05/04/2026 08 PM PDT 2.01 5 0 Not Applicable
05/04/2026 09 PM PDT 2.01 5 0 Not Applicable
05/04/2026 10 PM PDT 2.01 5 0 Not Applicable
05/04/2026 11 PM PDT 2.01 5 0 Not Applicable
05/05/2026 12 AM PDT 2.01 5 0 Not Applicable
05/05/2026 01 AM PDT 2.01 5 0 Not Applicable
05/05/2026 02 AM PDT 2.01 5 0 Not Applicable
05/05/2026 03 AM PDT 2.01 5 0 Not Applicable
05/05/2026 04 AM PDT 2.01 5 0 Not Applicable
05/05/2026 05 AM PDT 2.01 5 0 Not Applicable
05/05/2026 06 AM PDT 2.02 5 + Not Applicable
05/05/2026 07 AM PDT 2.02 5 0 Not Applicable
05/05/2026 08 AM PDT 2.02 5 0 Not Applicable
05/05/2026 09 AM PDT 2.01 5 - Not Applicable
05/05/2026 10 AM PDT 1.99 5 - Not Applicable
05/05/2026 11 AM PDT 1.97 4 - Not Applicable
05/05/2026 12 PM PDT 1.97 4 0 Not Applicable
05/05/2026 01 PM PDT 1.94 4 - Not Applicable
05/05/2026 02 PM PDT 1.94 4 0 Not Applicable
05/05/2026 03 PM PDT 1.94 4 0 Not Applicable
05/05/2026 04 PM PDT 1.93 4 - Not Applicable
05/05/2026 05 PM PDT 1.95 4 + Not Applicable
05/05/2026 06 PM PDT 1.95 4 0 Not Applicable
05/05/2026 07 PM PDT 1.96 4 + Not Applicable
05/05/2026 08 PM PDT 1.95 4 - Not Applicable
05/05/2026 09 PM PDT 2.00 5 + Not Applicable
05/05/2026 10 PM PDT 2.00 5 0 Not Applicable
05/05/2026 11 PM PDT 2.00 5 0 Not Applicable
05/06/2026 12 AM PDT 2.00 5 0 Not Applicable
05/06/2026 01 AM PDT 2.00 5 0 Not Applicable
05/06/2026 02 AM PDT 2.00 5 0 Not Applicable
05/06/2026 03 AM PDT 2.00 5 0 Not Applicable
05/06/2026 04 AM PDT 2.00 5 0 Not Applicable
05/06/2026 05 AM PDT 2.00 5 0 Not Applicable
05/06/2026 06 AM PDT 2.00 5 0 Not Applicable
05/06/2026 07 AM PDT 2.01 5 + Not Applicable
05/06/2026 08 AM PDT 2.00 5 - Not Applicable
05/06/2026 09 AM PDT 2.01 5 + Not Applicable
05/06/2026 10 AM PDT 1.98 5 - Not Applicable
05/06/2026 11 AM PDT 2.00 5 + Not Applicable
05/06/2026 12 PM PDT 1.95 4 - Not Applicable
05/06/2026 01 PM PDT 1.98 5 + Not Applicable
05/06/2026 02 PM PDT 1.95 4 - Not Applicable
05/06/2026 03 PM PDT 1.96 4 + Not Applicable
05/06/2026 04 PM PDT 1.95 4 - Not Applicable
05/06/2026 05 PM PDT 1.94 4 - Not Applicable
05/06/2026 06 PM PDT 1.96 4 + Not Applicable
05/06/2026 07 PM PDT 1.99 5 + Not Applicable
05/06/2026 08 PM PDT 1.99 5 0 Not Applicable
05/06/2026 09 PM PDT 1.94 4 - Not Applicable
05/06/2026 10 PM PDT 1.97 4 + Not Applicable
05/06/2026 11 PM PDT 1.97 4 0 Not Applicable
05/07/2026 12 AM PDT 2.00 5 + Not Applicable
05/07/2026 01 AM PDT 2.00 5 0 Not Applicable
05/07/2026 02 AM PDT 1.95 4 - Not Applicable
05/07/2026 03 AM PDT 1.99 5 + Not Applicable
05/07/2026 04 AM PDT 2.00 5 + Not Applicable
05/07/2026 05 AM PDT 2.00 5 0 Not Applicable
05/07/2026 06 AM PDT 2.00 5 0 Not Applicable
05/07/2026 07 AM PDT 2.00 5 0 Not Applicable
#
# FORECAST
#
# Date & Time (Local) Stage (Feet) Flow (cfs) Trend Forecast Status
# ---------------------------------------------------------------------------------
05/07/2026 08 AM PDT 2.00 5 Not Applicable
05/07/2026 09 AM PDT 2.00 5 0 Not Applicable
05/07/2026 10 AM PDT 2.00 5 0 Not Applicable
05/07/2026 11 AM PDT 2.00 5 0 Not Applicable
05/07/2026 12 PM PDT 2.00 5 0 Not Applicable
05/07/2026 01 PM PDT 2.00 5 0 Not Applicable
05/07/2026 02 PM PDT 2.00 5 0 Not Applicable
05/07/2026 03 PM PDT 2.00 5 0 Not Applicable
05/07/2026 04 PM PDT 2.00 5 0 Not Applicable
05/07/2026 05 PM PDT 2.00 5 0 Not Applicable
05/07/2026 06 PM PDT 2.00 5 0 Not Applicable
05/07/2026 07 PM PDT 2.00 5 0 Not Applicable
05/07/2026 08 PM PDT 2.00 5 0 Not Applicable
05/07/2026 09 PM PDT 2.00 5 0 Not Applicable
05/07/2026 10 PM PDT 2.00 5 0 Not Applicable
05/07/2026 11 PM PDT 2.00 5 0 Not Applicable
05/08/2026 12 AM PDT 2.00 5 0 Not Applicable
05/08/2026 01 AM PDT 2.00 5 0 Not Applicable
05/08/2026 02 AM PDT 2.00 5 0 Not Applicable
05/08/2026 03 AM PDT 2.00 5 0 Not Applicable
05/08/2026 04 AM PDT 2.00 5 0 Not Applicable
05/08/2026 05 AM PDT 2.00 5 0 Not Applicable
05/08/2026 06 AM PDT 2.00 5 0 Not Applicable
05/08/2026 07 AM PDT 2.00 5 0 Not Applicable
05/08/2026 08 AM PDT 2.00 5 0 Not Applicable
05/08/2026 09 AM PDT 2.00 5 0 Not Applicable
05/08/2026 10 AM PDT 2.00 5 0 Not Applicable
05/08/2026 11 AM PDT 2.00 5 0 Not Applicable
05/08/2026 12 PM PDT 2.00 5 0 Not Applicable
05/08/2026 01 PM PDT 2.00 5 0 Not Applicable
05/08/2026 02 PM PDT 2.00 5 0 Not Applicable
05/08/2026 03 PM PDT 2.00 5 0 Not Applicable
05/08/2026 04 PM PDT 2.00 5 0 Not Applicable
05/08/2026 05 PM PDT 2.00 5 0 Not Applicable
05/08/2026 06 PM PDT 2.00 5 0 Not Applicable
05/08/2026 07 PM PDT 2.00 5 0 Not Applicable
05/08/2026 08 PM PDT 2.00 5 0 Not Applicable
05/08/2026 09 PM PDT 2.00 5 0 Not Applicable
05/08/2026 10 PM PDT 2.00 5 0 Not Applicable
05/08/2026 11 PM PDT 2.00 5 0 Not Applicable
05/09/2026 12 AM PDT 2.00 5 0 Not Applicable
05/09/2026 01 AM PDT 2.00 5 0 Not Applicable
05/09/2026 02 AM PDT 2.00 5 0 Not Applicable
05/09/2026 03 AM PDT 2.00 5 0 Not Applicable
05/09/2026 04 AM PDT 1.99 5 - Not Applicable
05/09/2026 05 AM PDT 1.99 5 0 Not Applicable
05/09/2026 06 AM PDT 1.99 5 0 Not Applicable
05/09/2026 07 AM PDT 1.99 5 0 Not Applicable
05/09/2026 08 AM PDT 1.99 5 0 Not Applicable
05/09/2026 09 AM PDT 1.99 5 0 Not Applicable
05/09/2026 10 AM PDT 1.99 5 0 Not Applicable
05/09/2026 11 AM PDT 1.99 5 0 Not Applicable
05/09/2026 12 PM PDT 1.99 5 0 Not Applicable
05/09/2026 01 PM PDT 1.99 5 0 Not Applicable
05/09/2026 02 PM PDT 1.99 5 0 Not Applicable
05/09/2026 03 PM PDT 1.99 5 0 Not Applicable
05/09/2026 04 PM PDT 1.99 5 0 Not Applicable
05/09/2026 05 PM PDT 1.99 5 0 Not Applicable
05/09/2026 06 PM PDT 1.99 5 0 Not Applicable
05/09/2026 07 PM PDT 1.99 5 0 Not Applicable
05/09/2026 08 PM PDT 1.99 5 0 Not Applicable
05/09/2026 09 PM PDT 1.99 5 0 Not Applicable
05/09/2026 10 PM PDT 1.99 5 0 Not Applicable
05/09/2026 11 PM PDT 1.99 5 0 Not Applicable
05/10/2026 12 AM PDT 1.99 5 0 Not Applicable
05/10/2026 01 AM PDT 1.99 5 0 Not Applicable
05/10/2026 02 AM PDT 1.99 5 0 Not Applicable
05/10/2026 03 AM PDT 1.99 5 0 Not Applicable
05/10/2026 04 AM PDT 1.99 5 0 Not Applicable
05/10/2026 05 AM PDT 1.99 5 0 Not Applicable
05/10/2026 06 AM PDT 1.99 5 0 Not Applicable
05/10/2026 07 AM PDT 1.99 5 0 Not Applicable
05/10/2026 08 AM PDT 1.99 5 0 Not Applicable
05/10/2026 09 AM PDT 1.99 5 0 Not Applicable
05/10/2026 10 AM PDT 1.99 5 0 Not Applicable
05/10/2026 11 AM PDT 1.99 5 0 Not Applicable
05/10/2026 12 PM PDT 1.99 5 0 Not Applicable
05/10/2026 01 PM PDT 1.99 5 0 Not Applicable
05/10/2026 02 PM PDT 1.99 5 0 Not Applicable
05/10/2026 03 PM PDT 1.99 5 0 Not Applicable
05/10/2026 04 PM PDT 1.99 5 0 Not Applicable
05/10/2026 05 PM PDT 1.99 5 0 Not Applicable
05/10/2026 06 PM PDT 1.99 5 0 Not Applicable
05/10/2026 07 PM PDT 1.99 5 0 Not Applicable
05/10/2026 08 PM PDT 1.99 5 0 Not Applicable
05/10/2026 09 PM PDT 1.99 5 0 Not Applicable
05/10/2026 10 PM PDT 1.99 5 0 Not Applicable
05/10/2026 11 PM PDT 1.99 5 0 Not Applicable
05/11/2026 12 AM PDT 1.99 5 0 Not Applicable
05/11/2026 01 AM PDT 1.99 5 0 Not Applicable
05/11/2026 02 AM PDT 1.99 5 0 Not Applicable
05/11/2026 03 AM PDT 1.99 5 0 Not Applicable
05/11/2026 04 AM PDT 1.99 5 0 Not Applicable
05/11/2026 05 AM PDT 1.99 5 0 Not Applicable
05/11/2026 06 AM PDT 1.99 5 0 Not Applicable
05/11/2026 07 AM PDT 1.99 5 0 Not Applicable
05/11/2026 08 AM PDT 1.99 5 0 Not Applicable
05/11/2026 09 AM PDT 1.99 5 0 Not Applicable
05/11/2026 10 AM PDT 1.99 5 0 Not Applicable
05/11/2026 11 AM PDT 1.99 5 0 Not Applicable
05/11/2026 12 PM PDT 1.99 5 0 Not Applicable
05/11/2026 01 PM PDT 1.99 5 0 Not Applicable
05/11/2026 02 PM PDT 1.99 5 0 Not Applicable
05/11/2026 03 PM PDT 1.99 5 0 Not Applicable
05/11/2026 04 PM PDT 1.99 5 0 Not Applicable
05/11/2026 05 PM PDT 1.99 5 0 Not Applicable
05/11/2026 06 PM PDT 1.98 5 - Not Applicable
05/11/2026 07 PM PDT 1.98 5 0 Not Applicable
05/11/2026 08 PM PDT 1.98 5 0 Not Applicable
05/11/2026 09 PM PDT 1.98 5 0 Not Applicable
05/11/2026 10 PM PDT 1.98 5 0 Not Applicable
05/11/2026 11 PM PDT 1.98 5 0 Not Applicable
05/12/2026 12 AM PDT 1.98 5 0 Not Applicable
05/12/2026 01 AM PDT 1.98 5 0 Not Applicable
05/12/2026 02 AM PDT 1.98 5 0 Not Applicable
05/12/2026 03 AM PDT 1.98 5 0 Not Applicable
05/12/2026 04 AM PDT 1.98 5 0 Not Applicable
05/12/2026 05 AM PDT 1.98 5 0 Not Applicable
#
# NOTE 1: Stages are rounded to the nearest hundredth (.01) of a foot.
# NOTE 2: Flows are rounded to the nearest (1) cfs.
# NOTE 3: Trends are determined using hourly change in unrounded stage and flow.
# NOTE 4: Maximum Values are determined using unrounded stage and flow.
|